Time,TemperatureF,DewpointF,PressureIn,WindDirection,WindDirectionDegrees,WindSpeedMPH,WindSpeedGustMPH,Humidity,HourlyPrecipIn,Conditions,Clouds,dailyrainin,SoftwareType,DateUTC
2013-08-13 00:23:00,68.0,-99.9,-100.00,NNW,344,4.0,6.0,-999,-99.99,,,-99.99,,2013-08-13 04:23:00,
2013-08-13 00:33:00,68.0,-99.9,-100.00,NNW,344,4.0,6.0,-999,-99.99,,,-99.99,,2013-08-13 04:33:00,
2013-08-13 00:53:00,68.0,-99.9,-100.00,NNW,335,4.0,6.0,-999,-99.99,,,-99.99,,2013-08-13 04:53:00,
2013-08-13 01:12:00,68.0,-99.9,-100.00,NNW,335,4.0,6.0,-999,-99.99,,,-99.99,,2013-08-13 05:12:00,
2013-08-13 01:22:00,68.0,-99.9,-100.00,North,0,10.0,14.0,-999,-99.99,,,-99.99,,2013-08-13 05:22:00,
2013-08-13 01:32:00,68.0,-99.9,-100.00,North,0,10.0,14.0,-999,-99.99,,,-99.99,,2013-08-13 05:32:00,
2013-08-13 01:52:00,69.0,-99.9,-100.00,North,9,5.0,14.0,-999,-99.99,,,-99.99,,2013-08-13 05:52:00,
2013-08-13 02:02:00,69.0,-99.9,-100.00,North,9,5.0,14.0,-999,-99.99,,,-99.99,,2013-08-13 06:02:00,
2013-08-13 02:21:00,68.0,-99.9,-100.00,NNW,344,13.0,18.0,-999,-99.99,,,-99.99,,2013-08-13 06:21:00,
2013-08-13 02:32:00,68.0,-99.9,-100.00,NNW,344,13.0,18.0,-999,-99.99,,,-99.99,,2013-08-13 06:32:00,
2013-08-13 02:53:00,69.0,-99.9,-100.00,NNW,347,11.0,17.0,-999,-99.99,,,-99.99,,2013-08-13 06:53:00,
2013-08-13 03:12:00,69.0,-99.9,-100.00,NNW,347,11.0,17.0,-999,-99.99,,,-99.99,,2013-08-13 07:12:00,
2013-08-13 03:22:00,67.0,-99.9,-100.00,North,351,16.0,21.0,-999,-99.99,,,-99.99,,2013-08-13 07:22:00,
2013-08-13 03:33:00,67.0,-99.9,-100.00,North,351,16.0,21.0,-999,-99.99,,,-99.99,,2013-08-13 07:33:00,
2013-08-13 03:42:00,67.0,-99.9,-100.00,North,351,16.0,21.0,-999,-99.99,,,-99.99,,2013-08-13 07:42:00,
2013-08-13 03:52:00,67.0,-99.9,-100.00,North,356,14.0,19.0,-999,-99.99,,,-99.99,,2013-08-13 07:52:00,
2013-08-13 04:02:00,67.0,-99.9,-100.00,North,356,14.0,19.0,-999,-99.99,,,-99.99,,2013-08-13 08:02:00,
2013-08-13 04:22:00,66.0,-99.9,-100.00,North,354,14.0,18.0,-999,-99.99,,,-99.99,,2013-08-13 08:22:00,
2013-08-13 04:32:00,66.0,-99.9,-100.00,North,354,14.0,18.0,-999,-99.99,,,-99.99,,2013-08-13 08:32:00,
2013-08-13 04:42:00,66.0,-99.9,-100.00,North,354,14.0,18.0,-999,-99.99,,,-99.99,,2013-08-13 08:42:00,
2013-08-13 04:52:00,66.0,-99.9,-100.00,North,354,15.0,21.0,-999,-99.99,,,-99.99,,2013-08-13 08:52:00,
2013-08-13 05:11:00,66.0,-99.9,-100.00,North,354,15.0,21.0,-999,-99.99,,,-99.99,,2013-08-13 09:11:00,
2013-08-13 05:22:00,64.0,-99.9,-100.00,NNW,347,16.0,22.0,-999,-99.99,,,-99.99,,2013-08-13 09:22:00,
2013-08-13 05:33:00,64.0,-99.9,-100.00,NNW,347,16.0,22.0,-999,-99.99,,,-99.99,,2013-08-13 09:33:00,
2013-08-13 05:54:00,65.0,-99.9,-100.00,North,350,15.0,22.0,-999,-99.99,,,-99.99,,2013-08-13 09:54:00,
2013-08-13 06:13:00,65.0,-99.9,-100.00,North,350,15.0,22.0,-999,-99.99,,,-99.99,,2013-08-13 10:13:00,
2013-08-13 06:23:00,63.0,-99.9,-100.00,North,357,16.0,22.0,-999,-99.99,,,-99.99,,2013-08-13 10:23:00,
2013-08-13 06:32:00,63.0,-99.9,-100.00,North,357,16.0,22.0,-999,-99.99,,,-99.99,,2013-08-13 10:32:00,
2013-08-13 06:43:00,63.0,-99.9,-100.00,North,357,16.0,22.0,-999,-99.99,,,-99.99,,2013-08-13 10:43:00,
2013-08-13 06:53:00,63.0,-99.9,-100.00,North,356,16.0,22.0,-999,-99.99,,,-99.99,,2013-08-13 10:53:00,
2013-08-13 07:03:00,63.0,-99.9,-100.00,North,356,16.0,22.0,-999,-99.99,,,-99.99,,2013-08-13 11:03:00,
2013-08-13 07:22:00,61.0,-99.9,-100.00,North,8,14.0,24.0,-999,-99.99,,,-99.99,,2013-08-13 11:22:00,
2013-08-13 07:32:00,61.0,-99.9,-100.00,North,8,14.0,24.0,-999,-99.99,,,-99.99,,2013-08-13 11:32:00,
2013-08-13 07:42:00,61.0,-99.9,-100.00,North,8,14.0,24.0,-999,-99.99,,,-99.99,,2013-08-13 11:42:00,
2013-08-13 07:52:00,61.0,-99.9,-100.00,North,1,18.0,27.0,-999,-99.99,,,-99.99,,2013-08-13 11:52:00,
2013-08-13 08:21:00,59.0,-99.9,-100.00,North,8,11.0,19.0,-999,-99.99,,,-99.99,,2013-08-13 12:21:00,
2013-08-13 08:32:00,59.0,-99.9,-100.00,North,8,11.0,19.0,-999,-99.99,,,-99.99,,2013-08-13 12:32:00,
2013-08-13 08:42:00,59.0,-99.9,-100.00,North,8,11.0,19.0,-999,-99.99,,,-99.99,,2013-08-13 12:42:00,
2013-08-13 08:52:00,59.0,-99.9,-100.00,North,8,11.0,19.0,-999,-99.99,,,-99.99,,2013-08-13 12:52:00,
2013-08-13 09:11:00,59.0,-99.9,-100.00,NNE,16,7.0,21.0,-999,-99.99,,,-99.99,,2013-08-13 13:11:00,
2013-08-13 09:22:00,60.0,-99.9,-100.00,NNE,16,10.0,20.0,-999,-99.99,,,-99.99,,2013-08-13 13:22:00,
2013-08-13 09:32:00,60.0,-99.9,-100.00,NNE,16,10.0,20.0,-999,-99.99,,,-99.99,,2013-08-13 13:32:00,
2013-08-13 09:52:00,60.0,-99.9,-100.00,North,9,13.0,24.0,-999,-99.99,,,-99.99,,2013-08-13 13:52:00,
2013-08-13 10:11:00,60.0,-99.9,-100.00,North,9,13.0,24.0,-999,-99.99,,,-99.99,,2013-08-13 14:11:00,
2013-08-13 10:22:00,60.0,-99.9,-100.00,NNE,16,10.0,24.0,-999,-99.99,,,-99.99,,2013-08-13 14:22:00,
2013-08-13 10:42:00,60.0,-99.9,-100.00,North,0,17.0,25.0,-999,-99.99,,,-99.99,,2013-08-13 14:42:00,
2013-08-13 10:52:00,60.0,-99.9,-100.00,North,0,17.0,25.0,-999,-99.99,,,-99.99,,2013-08-13 14:52:00,
2013-08-13 11:22:00,62.0,-99.9,-100.00,North,359,19.0,25.0,-999,-99.99,,,-99.99,,2013-08-13 15:22:00,
2013-08-13 11:44:00,61.0,-99.9,-100.00,North,3,16.0,25.0,-999,-99.99,,,-99.99,,2013-08-13 15:44:00,
2013-08-13 11:54:00,61.0,-99.9,-100.00,North,3,16.0,25.0,-999,-99.99,,,-99.99,,2013-08-13 15:54:00,
2013-08-13 12:04:00,61.0,-99.9,-100.00,North,3,16.0,25.0,-999,-99.99,,,-99.99,,2013-08-13 16:04:00,
2013-08-13 12:24:00,62.0,-99.9,-100.00,North,358,16.0,24.0,-999,-99.99,,,-99.99,,2013-08-13 16:24:00,
2013-08-13 12:36:00,62.0,-99.9,-100.00,North,358,16.0,24.0,-999,-99.99,,,-99.99,,2013-08-13 16:36:00,
2013-08-13 12:54:00,61.0,-99.9,-100.00,North,350,16.0,0.0,-999,-99.99,,,-99.99,,2013-08-13 16:54:00,
2013-08-13 13:06:00,61.0,-99.9,-100.00,North,350,16.0,0.0,-999,-99.99,,,-99.99,,2013-08-13 17:06:00,
2013-08-13 13:27:00,62.0,-99.9,-100.00,NNW,348,15.0,20.0,-999,-99.99,,,-99.99,,2013-08-13 17:27:00,
2013-08-13 13:38:00,62.0,-99.9,-100.00,NNW,348,15.0,20.0,-999,-99.99,,,-99.99,,2013-08-13 17:38:00,
2013-08-13 13:46:00,-999.0,-99.9,-100.00,North,353,14.0,20.0,-999,-99.99,,,-99.99,,2013-08-13 17:46:00,
2013-08-13 13:56:00,63.0,-99.9,-100.00,North,353,14.0,20.0,-999,-99.99,,,-99.99,,2013-08-13 17:56:00,
2013-08-13 14:15:00,63.0,-99.9,-100.00,North,353,14.0,20.0,-999,-99.99,,,-99.99,,2013-08-13 18:15:00,
2013-08-13 14:25:00,63.0,-99.9,-100.00,North,353,14.0,20.0,-999,-99.99,,,-99.99,,2013-08-13 18:25:00,
2013-08-13 14:37:00,63.0,-99.9,-100.00,North,353,14.0,20.0,-999,-99.99,,,-99.99,,2013-08-13 18:37:00,
2013-08-13 14:56:00,64.0,-99.9,-100.00,North,351,13.0,22.0,-999,-99.99,,,-99.99,,2013-08-13 18:56:00,
2013-08-13 15:14:00,64.0,-99.9,-100.00,North,351,13.0,22.0,-999,-99.99,,,-99.99,,2013-08-13 19:14:00,
2013-08-13 15:25:00,65.0,-99.9,-100.00,NNW,345,14.0,19.0,-999,-99.99,,,-99.99,,2013-08-13 19:25:00,
2013-08-13 15:36:00,65.0,-99.9,-100.00,NNW,345,14.0,19.0,-999,-99.99,,,-99.99,,2013-08-13 19:36:00,
2013-08-13 15:55:00,64.0,-99.9,-100.00,NNW,347,16.0,20.0,-999,-99.99,,,-99.99,,2013-08-13 19:55:00,
2013-08-13 16:15:00,64.0,-99.9,-100.00,NNW,347,16.0,20.0,-999,-99.99,,,-99.99,,2013-08-13 20:15:00,
2013-08-13 16:22:00,65.0,-99.9,-100.00,NNW,344,16.0,23.0,-999,-99.99,,,-99.99,,2013-08-13 20:22:00,
2013-08-13 16:32:00,65.0,-99.9,-100.00,NNW,344,16.0,23.0,-999,-99.99,,,-99.99,,2013-08-13 20:32:00,
2013-08-13 16:53:00,65.0,-99.9,-100.00,NNW,348,17.0,23.0,-999,-99.99,,,-99.99,,2013-08-13 20:53:00,
2013-08-13 17:01:00,65.0,-99.9,-100.00,NNW,348,17.0,23.0,-999,-99.99,,,-99.99,,2013-08-13 21:01:00,
2013-08-13 17:24:00,65.0,-99.9,-100.00,NNW,331,15.0,21.0,-999,-99.99,,,-99.99,,2013-08-13 21:24:00,
2013-08-13 17:34:00,65.0,-99.9,-100.00,NNW,331,15.0,21.0,-999,-99.99,,,-99.99,,2013-08-13 21:34:00,
2013-08-13 17:54:00,65.0,-99.9,-100.00,NNW,334,16.0,23.0,-999,-99.99,,,-99.99,,2013-08-13 21:54:00,
2013-08-13 18:04:00,65.0,-99.9,-100.00,NNW,334,16.0,23.0,-999,-99.99,,,-99.99,,2013-08-13 22:04:00,
2013-08-13 18:23:00,64.0,-99.9,-100.00,NNW,332,15.0,18.0,-999,-99.99,,,-99.99,,2013-08-13 22:23:00,
2013-08-13 18:35:00,64.0,-99.9,-100.00,NNW,332,15.0,18.0,-999,-99.99,,,-99.99,,2013-08-13 22:35:00,
2013-08-13 18:57:00,64.0,-99.9,-100.00,NNW,329,14.0,21.0,-999,-99.99,,,-99.99,,2013-08-13 22:57:00,
2013-08-13 19:00:00,64.0,-99.9,-100.00,NNW,335,13.0,18.0,-999,-99.99,,,-99.99,,2013-08-13 23:00:00,
2013-08-13 19:13:00,64.0,-99.9,-100.00,NNW,329,14.0,21.0,-999,-99.99,,,-99.99,,2013-08-13 23:13:00,
2013-08-13 19:47:00,64.0,-99.9,-100.00,NNW,335,13.0,18.0,-999,-99.99,,,-99.99,,2013-08-13 23:47:00,
2013-08-13 19:57:00,64.0,-99.9,-100.00,NNW,335,13.0,18.0,-999,-99.99,,,-99.99,,2013-08-13 23:57:00,
2013-08-13 20:22:00,63.0,-99.9,-100.00,NNW,346,11.0,16.0,-999,-99.99,,,-99.99,,2013-08-14 00:22:00,
2013-08-13 20:42:00,63.0,-99.9,-100.00,NNW,345,11.0,19.0,-999,-99.99,,,-99.99,,2013-08-14 00:42:00,
2013-08-13 20:52:00,63.0,-99.9,-100.00,NNW,345,11.0,19.0,-999,-99.99,,,-99.99,,2013-08-14 00:52:00,
2013-08-13 21:01:00,63.0,-99.9,-100.00,NNW,345,11.0,19.0,-999,-99.99,,,-99.99,,2013-08-14 01:01:00,
2013-08-13 21:21:00,62.0,-99.9,-100.00,NNW,346,14.0,19.0,-999,-99.99,,,-99.99,,2013-08-14 01:21:00,
2013-08-13 21:32:00,62.0,-99.9,-100.00,NNW,346,14.0,19.0,-999,-99.99,,,-99.99,,2013-08-14 01:32:00,
2013-08-13 21:42:00,62.0,-99.9,-100.00,NNW,346,14.0,19.0,-999,-99.99,,,-99.99,,2013-08-14 01:42:00,
2013-08-13 21:53:00,62.0,-99.9,-100.00,NNW,345,14.0,21.0,-999,-99.99,,,-99.99,,2013-08-14 01:53:00,
2013-08-13 22:02:00,62.0,-99.9,-100.00,NNW,345,14.0,21.0,-999,-99.99,,,-99.99,,2013-08-14 02:02:00,
2013-08-13 22:22:00,61.0,-99.9,-100.00,North,1,14.0,19.0,-999,-99.99,,,-99.99,,2013-08-14 02:22:00,
2013-08-13 22:42:00,61.0,-99.9,-100.00,North,353,13.0,19.0,-999,-99.99,,,-99.99,,2013-08-14 02:42:00,
2013-08-13 22:52:00,61.0,-99.9,-100.00,North,353,13.0,19.0,-999,-99.99,,,-99.99,,2013-08-14 02:52:00,
2013-08-13 23:11:00,61.0,-99.9,-100.00,North,353,13.0,19.0,-999,-99.99,,,-99.99,,2013-08-14 03:11:00,
2013-08-13 23:22:00,61.0,-99.9,-100.00,North,358,11.0,17.0,-999,-99.99,,,-99.99,,2013-08-14 03:22:00,
2013-08-13 23:33:00,61.0,-99.9,-100.00,North,358,11.0,17.0,-999,-99.99,,,-99.99,,2013-08-14 03:33:00,
2013-08-13 23:43:00,61.0,-99.9,-100.00,North,358,11.0,17.0,-999,-99.99,,,-99.99,,2013-08-14 03:43:00,
2013-08-13 23:53:00,61.0,-99.9,-100.00,North,357,12.0,19.0,-999,-99.99,,,-99.99,,2013-08-14 03:53:00,